World > North America > United States > California > Dixon   City of Dixon, CA

Dixon, CA Hourly Weather Updates

Feedback E-mail the Weather

Quick Clicks

Dixon, CA Weather Maps

°F °C°F °C
Dixon Weather Map
UTC Time: 4/13/2024, 16:01
Your Time:

Dixon, CA Regional Weather

Expires:202404131600;;676284
ASUS46 KSTO 131515
RWRCA 

NORTHERN AND CENTRAL CA REGIONAL WEATHER ROUNDUP
NATIONAL WEATHER SERVICE SACRAMENTO CA 
800 AM PDT SAT APR 13 2024

NOTE: FAIR INDICATES FEW OR NO CLOUDS BELOW 12,000 FEET WITH NO
SIGNIFICANT WEATHER AND/OR OBSTRUCTIONS TO VISIBILITY.


CAZ016>018-131600-
SOUTHERN SACRAMENTO VALLEY
  
CITY           SKY/WX    TMP DP  RH WIND       PRES   REMARKS
AUBURN         CLOUDY    54  45  71 SE8G14    29.84R                  
BEALE AFB      DRIZZLE   52  48  87 SW16      29.83R                  
LINCOLN        CLOUDY    50  50 100 SW15G21   29.85R                  
MARYSVILLE     LGT RAIN  50  45  83 SW14G23   29.86R                  
SAC INTL ARPT  LGT RAIN  49  45  86 SW14      29.87R FOG              
MATHER AIRPORT CLOUDY    46  46 100 SW15G22   29.86R FOG              
DOWNTOWN SAC   N/A       47  MM  MM MISG
SAC EXEC ARPT  LGT RAIN  46  43  89 SW15G24   29.88R FOG              
VACAVILLE      RAIN      45  41  86 SW7       29.89R FOG              
TRAVIS AFB     RAIN      46  42  87 W8        29.87R FOG              
$$

SKY/WX - Weather  TMP - Temperature  DP - Dew Point  RH - Humidity
WIND - Wind Direction/Speed PRES - Barometric Pressure VSB - Visibility
WCI - Wind Chill Index E13G22 Wind - East Wind 13 mph/Gusts of 22 mph

Trending Headlines

Trending Entertainment Headlines

Dixon Radar Loop

Use the map search tool if you want to place a location marker on the radar map...

Dixon Quick Facts

National Two Day Weather Forecast


E-mail the Dixon Weather Forecast

Voice your opinion or tell us about page issues...